Погода в Рязани

Погода в Рязани : погода сейчас, прогноз погоды и архив. Всё, что Вы хотите узнать о погоде в Рязани!

Хотите узнать прогноз погоды в Рязани? Тогда Вам сюда: Погода в Рязани

Поиск расширенной информации на нашем сайте:

Другие новости

Новости СМИ2

Главная страница сайта

Новости сайта

03.07.2017

Напоминаем, что на нашем специализированном сайте Метеоцентр.Азия вы можете получить высокодетализированные автоматические прогнозы погоды по пунктам России, СНГ и мира в авиационном формате (включающие направление и скорость ветра, видимость, явления погоды, количество и форму облачности, нижнюю и верхнюю границу облачности).

Рекомендуем: Информация medicine на нашем сайте.

Погода в Рязани - сегодня

Время (UTC), дата Ветер
(°,м/с) 
Видим.   Явления Облачность Т
(°С)
Тd
(°С)
f(%) Тe
(°С)
Pmin
(гПа)
dP
(гПа)
Po
(мм)
O2
(г/м3)
Тmin Tmax R s Состояние
почвы
12 20.08.17 150 (ЮВ) 20000 м    4/4 600 м 
[Cu hum]
+31.8 +8 23 +32  1022.6  -0.6  754  271           
15 20.08.17 160 (Ю) 20000 м    ясно 
+28.3 +12.5 38 +33  1022  -0.8  753  273    +32.6       
18 20.08.17 150 (ЮВ) 20000 м    ясно 
+19.4 +13.5 69 +26  1023  0.4  753  281           
21 20.08.17 150 (ЮВ) 20000 м    ясно 
+17 +13.9 82 +25  1022.9  -0.2  753  283           
00 21.08.17 150 (ЮВ) 20000 м    ясно 
+17.8 +12.3 70 +23  1022.6  -0.3  753  282           
03 21.08.17 120 (ЮВ) 20000 м    ясно 
+15.6 +12.1 80 +21  1022.4  -0.3  753  285  +15.5        сухая 
06 21.08.17 150 (ЮВ) 20000 м    ясно 
+23.2 +12 49 +27  1021.4  -0.5  752  277           
09 21.08.17 150 (ЮВ) 20000 м    ясно 
+28.3 +10.4 33 +30  1020.1  -1  752  273           
12 21.08.17 140 (ЮВ) 20000 м    ясно 
+30.5 +10.6 29 +32  1018.6  -1.4  751  270           
15 21.08.17 150 (ЮВ) 20000 м    ясно 
+28.9 +11.5 34 +32  1017.7  -0.9  750  271    +30.7       
18 21.08.17 140 (ЮВ) 20000 м    ясно 
+24 +14.2 54 +31  1018.2  0.2  750  275           
21 21.08.17 140 (ЮВ) 20000 м    ясно 
+22.4 +12.8 55 +27  1018.3  750  277           
00 22.08.17 150 (ЮВ) 20000 м    ясно 
+20.4 +12.6 61 +25  1017.9  -0.5  750  279           
03 22.08.17 150 (ЮВ) 20000 м    3/0 средняя 
[Ac As]
+19 +11.6 62 +23  1017.9  -0.1  750  280  +18.8        сухая 
06 22.08.17 160 (Ю) 20000 м    3/0 верхняя 
[Ci fib]
+23.3 +11.9 49 +27  1017.9  0.3  750  276  +18.8         
09 22.08.17 120 (ЮВ) 20000 м    8/0 верхняя 
[Ci fib]
+28.4 +10.1 32 +30  1016.4  -1.2  749  272           
12 22.08.17 110 (В) 2{10}  20000 м    6/0 верхняя 
[Ci fib]
+29.3 +9.2 29 +30  1014.2  -2.1  747  270           
15 22.08.17 110 (В) 2{11}  20000 м    4/0 средняя, верхняя 
[Ac trans|Ci fib]
+27.3 +12.6 40 +32  1012.7  -1.5  746  271    +29.5       
18 22.08.17 100 (В) 20000 м    8/0 средняя 
[Ac As]
+23.6 +14.4 56 +31  1012  -0.9  746  274           
21 22.08.17 110 (В) 20000 м    6/0 средняя 
[Ac trans]
+21.8 +13.9 61 +29  1010.7  -1.4  744  275           
00 23.08.17 140 (ЮВ) 20000 м    10/0 средняя 
[Ac As]
+21.8 +11.2 51 +25  1009.9  -0.8  744  275           
03 23.08.17 150 (ЮВ) 20000 м    10/10 600 м 
[Sc]
+20.1 +11.9 59 +24  1009.3  -0.6  743  277  +19.8        сухая 
06 23.08.17 130 (ЮВ) 20000 м  {ливн. осадки}  10/10 600 м 
[Sc]
+20.5 +12.1 59 +25  1006.9  -2.4  742  276  +17.3         
09 23.08.17 140 (ЮВ) 20000 м  в посл. час гроза{ливн. осадки}  10/10 600 м 
[Sc diur, vesp]
+20.7 +14.4 67 +29  1007.2  0.4  742  275           
12 23.08.17 150 (ЮВ) 4{11}  20000 м  в посл. час ливневой дождь{гроза}  8/5 600 м средняя, верхняя 
[Cu med, cong|Ac trans|Ci fib]
+26.7 +10.4 36 +29  1006.4  -0.5  742  270           
Время (UTC), дата Ветер
(°,м/с) 
Видим.   Явления Облачность Т
(°С)
Тd
(°С)
f(%) Тe
(°С)
Pmin
(гПа)
dP
(гПа)
Po
(мм)
O2
(г/м3)
Тmin Tmax R s Состояние
почвы

Для получения пояснительной информации подведите курсор к названию столбца.

ПОГОДА в Рязани - архив

Всё, что Вы хотите узнать о погоде в Рязани - удобно и подробно!

Выберите нужную дату (начиная с 1 января 2015* года) и нажмите кнопку "Найти".
Будут отображены архивные сводки погоды по пункту Рязань, начиная с указанной даты.


Отображать данные в формате CSV (для использования в таблицах Excel)


Внимание! Наш архив погоды предназначен исключительно для личного некоммерческого использования в познавательных целях. Если Вам необходимы официальные справки о состоянии погоды (для производственных, юридических, коммерческих и т.п. целей), обращайтесь в органы Росгидромета.

*Примечание: данная дата относится к архиву по метеостанциям СССР (Россия, СНГ, Балтия).
Архив по метеостанциям Зарубежной Европы и Азии (кроме Китая) хранится 10 дней, по другим регионам земного шара (Китай, Африка, Америка, Австралия, Океания) - 1 день.

Рязань - район местоположения метеостанции


Название, широта, долгота, высота метеостанции:
Рязань 54.6°ш. 39.7°д. 158 м над ур. моря [Российская Федерация]

Дополнительная информация

В oтличие oт бoльшинства пoгoдных сайтoв мы публикуем пoдрoбную метеoинфoрмацию в детальнoм прoфессиoнальнoм фoрмате.

Характеристики температуры и влажнoсти вoздуха измеряются на высoте 2 м в тени вдали oт зданий и деревьев.
Скoрoсть ветра измеряется на высoте 10 м (на урoвне рoста челoвека скoрoсть ветра ниже в 1.5-2 раза). Если метеoстанция нахoдится в гoрoде или в лесу, тo скoрoсть ветра занижена на 2-4 м/с пo сравнению с oткрытым местoм. Скoрoсть ветра над акватoриями крупных рек и oзёр, а также на вершинах хoлмoв на 2-5 м/с выше, чем в oбычных услoвиях.
Атмoсфернoе давление в разных тoчках местнoсти мoжет значительнo oтличаться oт давления на метеoстанции, в зависимoсти oт услoвий рельефа (при пoдъёме на 10 м давление пoнижается примернo на 1 мм рт.ст.).